Location: Engelmannsreuth
(49.8125°N, 11.6497°E)
Time: 18:12:50
(UTC+00:00)

STARLINK-1162 - Pass Details

Date: 17 February 2020
Orbit: 553 x 556 km, 53.0° (Epoch: 01 April)

Event Time Altitude Azimuth Distance (km) Brightness Sun altitude
Exits shadow 04:36:33 34° 301° (WNW) 929 4.3 -17.5°
Maximum altitude 04:38:03 53° 359° (N) 679 4.0 -17.2°
Drops below altitude 10° 04:42:08 10° 78° (ENE) 1,828 7.5 -16.6°
Sets 04:44:25 0° 83° (E) 2,721 9.0 -16.2°
